This is the latest recevied weather packets stored in our database for station/object IZ8XTV-13. If no packets are shown the sender has not sent any weather packets the latest 1 day(s).
| Time | Temp. | Humidity | Pressure | Rain* | Wind** | Luminosity | Snow |
|---|---|---|---|---|---|---|---|
| 1778057959 | 20.56° C | 99% | 1014.9 hPa | 0 mm | - | - | - |
| 1778056737 | 19.44° C | 99% | 1014.9 hPa | 0 mm | - | - | - |
| 1778055512 | 19.44° C | 99% | 1015 hPa | 0 mm | - | - | - |
| 1778054900 | 18.89° C | 99% | 1015 hPa | 0 mm | - | - | - |
| 1778054289 | 18.33° C | 99% | 1015 hPa | 0 mm | - | - | - |
| 1778053066 | 18.33° C | 99% | 1014.9 hPa | 0 mm | - | - | - |
| 1778052273 | 18.89° C | 99% | 1015 hPa | 0 mm | - | - | - |
| 1778051662 | 18.33° C | 99% | 1015 hPa | 0 mm | - | - | - |
| 1778050439 | 18.33° C | 99% | 1015.1 hPa | 0 mm | - | - | - |
| 1778048601 | 16.67° C | 99% | 1015 hPa | 0 mm | - | - | - |
| 1778045542 | 14.44° C | 99% | 1015 hPa | 0 mm | - | - | - |
| 1778044931 | 14.44° C | 99% | 1015 hPa | 0 mm | - | - | - |
| 1778044320 | 13.89° C | 99% | 1014.9 hPa | 0 mm | - | - | - |
| 1778043707 | 13.89° C | 99% | 1014.8 hPa | 0 mm | - | - | - |
| 1778043096 | 13.89° C | 99% | 1014.7 hPa | 0 mm | - | - | - |
| 1778042485 | 13.89° C | 99% | 1014.7 hPa | 0 mm | - | - | - |
| 1778041874 | 13.89° C | 99% | 1014.5 hPa | 0 mm | - | - | - |
| 1778039427 | 13.89° C | 99% | 1014.4 hPa | 0 mm | - | - | - |
| 1778037593 | 13.89° C | 99% | 1014.6 hPa | 0 mm | - | - | - |
| 1778036982 | 13.89° C | 99% | 1014.6 hPa | 0 mm | - | - | - |
| 1778035758 | 13.89° C | 99% | 1014.8 hPa | 0 mm | - | - | - |
| 1778035146 | 14.44° C | 99% | 1014.8 hPa | 0 mm | - | - | - |
| 1778034534 | 14.44° C | 99% | 1014.8 hPa | 0 mm | - | - | - |
| 1778033922 | 14.44° C | 99% | 1014.8 hPa | 0 mm | - | - | - |
| 1778033309 | 14.44° C | 99% | 1014.9 hPa | 0 mm | - | - | - |
* Rain latest hour (hover to see other rain measurements)
** Current wind speed in m/s (hover to see current wind gust speed)